Regional Weather Roundup
Issued by NWS

Home | Current Version | Previous Version | Graphics & Text | Print | Product List | Glossary On
Versions: 1 2 3 4 5 6 7 8 9 10 11 12 13 14 15 16 17 18 19 20 21 22 23 24 25 26 27 28 29 30 31 32 33 34 35 36 37 38 39 40 41 42 43 44 45 46 47 48 49 50
849
ASUS43 KMKX 040911
RWRWI

WISCONSIN REGIONAL WEATHER ROUNDUP
NATIONAL WEATHER SERVICE MILWAUKEE/SULLIVAN WI
300 AM CST SUN DEC 04 2016

NOTE: "FAIR" INDICATES FEW OR NO CLOUDS BELOW 12,000 FEET WITH NO
SIGNIFICANT WEATHER AND/OR OBSTRUCTIONS TO VISIBILITY.

WIZ001-002-006>008-014>016-023>028-041000-
NORTHWEST WISCONSIN

CITY           SKY/WX    TMP DP  RH WIND       PRES   REMARKS
SUPERIOR ARPT  LGT SNOW  28  26  92 CALM      30.11F
ASHLAND        CLOUDY    29  22  75 VRB6      30.13F WCI  23
HAYWARD        LGT SNOW  28  22  78 S7        30.10F WCI  21
SIREN          LGT SNOW  29  26  91 SE7       30.08F WCI  22
CUMBERLAND     FLURRIES  28  25  86 SE7       30.08F WCI  21
RICE LAKE      LGT SNOW  28  26  89 SE10      30.11F WCI  19
CHETEK         LGT SNOW  28  26  90 SE6       30.10F WCI  22
LADYSMITH      LGT SNOW  29  25  84 SE6       30.14F WCI  23
EAU CLAIRE     LGT SNOW  30  26  85 SE7       30.11F FOG     WCI  23
MENOMONIE      LGT SNOW  31  28  90 E7        30.11F WCI  24
NEW RICHMOND   LGT SNOW  29  28  94 SE9       30.07F WCI  21
OSCEOLA        LGT SNOW  31  31 100 SE9       30.10F WCI  22
$$

WIZ003>005-009-010-017-018-041000-
NORTH CENTRAL WISCONSIN

CITY           SKY/WX    TMP DP  RH WIND       PRES   REMARKS
MANITOWISH WTR CLOUDY    26  20  79 S6        30.11F WCI  19
ARBOR VITAE    CLOUDY    28  22  78 S6        30.12F WCI  22
WOODRUFF       CLOUDY    28  22  78 S6        30.12F WCI  22
RHINELANDER    CLOUDY    27  20  75 S6        30.13F WCI  20
EAGLE RIVER    CLOUDY    26  20  77 CALM      30.12F
LAND O LAKES   CLOUDY    27  21  80 CALM      30.13F
PHILLIPS       CLOUDY    26  22  84 S6        30.12S WCI  20
TOMAHAWK       CLOUDY    26  22  82 CALM      30.14F
MEDFORD        CLOUDY    27  22  83 SE6       30.12F WCI  20
MERRILL        CLOUDY    28  22  80 S3        30.16F
$$

WIZ029-030-035-036-043>047-041000-
CENTRAL WISCONSIN

CITY           SKY/WX    TMP DP  RH WIND       PRES   REMARKS
WAUSAU         CLOUDY    28  21  75 S8        30.15F WCI  20
MOSINEE        CLOUDY    28  23  80 SE6       30.16F WCI  22
MARSHFIELD     CLOUDY    28  23  81 SE8       30.13F WCI  20
STEVENS POINT  CLOUDY    27  21  79 SE6       30.17F WCI  20
WAUPACA        CLOUDY    31  24  74 CALM      30.20F
WAUTOMA        CLOUDY    29  25  85 E5        30.19F WCI  24
WISC RAPIDS    CLOUDY    29  24  82 SE5       30.17F WCI  24
CAMP DOUGLAS   MIX PCPN  32  27  80 SE3       30.16F
$$

WIZ011>013-019>022-031-037>040-048>050-041000-
NORTHEAST WISCONSIN

CITY           SKY/WX    TMP DP  RH WIND       PRES   REMARKS
ANTIGO         CLOUDY    26  22  86 S7        30.15F WCI  18
SHAWANO        CLOUDY    31  24  76 CALM      30.20F
OCONTO         CLOUDY    31  22  71 CALM      30.22F
STURGEON BAY   CLOUDY    31  25  78 SW5       30.23S WCI  26
GREEN BAY      CLOUDY    32  26  78 S7        30.22F WCI  26
MANITOWOC      CLOUDY    30  24  78 MISG      30.24S
APPLETON       CLOUDY    30  21  69 CALM      30.18F
CLINTONVILLE   CLOUDY    30  23  74 S5        30.20F WCI  25
OSHKOSH        CLOUDY    30  24  78 S5        30.20F WCI  25
$$

WIZ032>034-041-042-053>061-041000-
SOUTHWEST WISCONSIN

CITY           SKY/WX    TMP DP  RH WIND       PRES   REMARKS
LA CROSSE      FLURRIES  33  31  92 SE6       30.14F WCI  28
SPARTA         FLURRIES  31  29  90 SE3       30.16F
VIROQUA        CLOUDY    30  30 100 SE7       30.13S WCI  23
BOSCOBEL       LGT SNOW  34  29  82 S3        30.17F
PRAIRIE DU CHI LGT SNOW  33  30  90 SE6       30.15F WCI  27
PLATTEVILLE    PTCLDY    32  32 100 SE6       30.16F WCI  26
$$

WIZ056-057-062-063-064-067-068-041000-
SOUTH CENTRAL WISCONSIN

CITY           SKY/WX    TMP DP  RH WIND       PRES   REMARKS
REEDSBURG      LGT RAIN  31  26  83 CALM      30.17F
BARABOO/DELLS  CLOUDY    31  26  80 S6        30.16F WCI  25
LONE ROCK      CLOUDY    32  28  85 E3        30.18F
MINERAL POINT  LGT SNOW  32  32 100 SE6       30.14F WCI  26
MADISON        LGT SNOW  31  28  89 S6        30.18F FOG     WCI  25
MIDDLETON      CLOUDY    33  30  90 S6        30.18F WCI  27
WATERTOWN      CLOUDY    30  28  91 SE5       30.19F WCI  25
MONROE         CLOUDY    32  30  93 S7        30.17F WCI  26
JANESVILLE     CLOUDY    34  30  86 SE5       30.18F WCI  30
$$

WIZ051-052-058>065-066-070>072-041000-
SOUTHEAST WISCONSIN

CITY           SKY/WX    TMP DP  RH WIND       PRES   REMARKS
MILWAUKEE      PTCLDY    29  21  72 CALM      30.22S
WAUKESHA       CLOUDY    28  23  80 SE5       30.22F WCI  23
MILWAUKEE/TIMM CLOUDY    30  21  69 CALM      30.23F
RACINE         MOCLDY    27  21  78 CALM      30.24F
BURLINGTON     CLOUDY    30  27  88 CALM      30.22S
KENOSHA        CLOUDY    30  25  81 CALM      30.22F
FOND DU LAC    CLOUDY    30  23  75 SE6       30.21F WCI  24
SHEBOYGAN      CLOUDY    28  25  88 CALM      30.23S
WEST BEND      CLOUDY    28  25  86 CALM      30.22F
JUNEAU         CLOUDY    29  25  86 SE8       30.20F WCI  21
$$

LSZ147-162-041000-
LAKE SUPERIOR

STATION/POSITION TIME  TEMP    WIND        PRES    WAVE
                       AIR SEA DIR/SP/G            HT/PER
                 (UTC) (F)     (DEG/KT/KT) (MB)    (FT/S)
DEVILS ISLAND    0900   31     180/  8/ 11 1021.2F
PORT WING        0830   30     150/  4/  8 1020.0F
SAXON HARBOR     0840   29     170/  3/  4 1020.7F
$$

LMZ867-665-643>646-041000-
LAKE MICHIGAN

STATION/POSITION TIME  TEMP    WIND        PRES    WAVE
                       AIR SEA DIR/SP/G            HT/PER
                 (UTC) (F)     (DEG/KT/KT) (MB)    (FT/S)
CHAMBERS ISLAND  0830   33     200/  3/  7 1023.0S
NORTHPORT PIER   0840   31      CALM  /  2 1023.4S
SISTER BAY       0823   33     220/ 11/ 14   N/A
ALGOMA LAKESHORE 0836          270/  5/  6   N/A
KEWAUNEE LAKESHO 0848   31     270/  3/  5 1023.2F
SHEBOYGAN LAKESH 0900   32     250/  3/  4 1024.3F
PORT WASHINGTON  0840   31     270/  4/  5 1024.7S
MILWAUKEE LAKESH 0850   33     220/  6/  7   N/A
S MID LAKE BUOY  0850   36 48  220/  2/  4 1024.0F   0
KENOSHA   LAKESH 0900   32     260/  3/  5 1023.7
$$

TC  - TEMPERATURE IN CELSIUS
VSB - VISIBILITY IN STATUTE MILES
WCI - WIND CHILL INDEX
HX  - HEAT INDEX





USA.gov is the U.S. government's official web portal to all federal, state and local government web resources and services.